Location: Cucq
(50.4773°N, 1.6202°E)
Time: 00:08:24
(UTC+00:00)

Cosmos 1743 - Pass Details

Date: 07 August 2020
Orbit: 509 x 528 km, 82.5° (Epoch: 23 September)

Event Time Altitude Azimuth Distance (km) Brightness Sun altitude
Exits shadow 00:41:16 31° 282° (WNW) 949 4.0 -22.6°
Maximum altitude 00:41:27 31° 288° (WNW) 945 4.0 -22.5°
Drops below altitude 10° 00:44:59 10° 352° (N) 1,786 6.4 -22.4°
Sets 00:47:19 0° 3° (N) 2,682 7.8 -22.4°
